When you browse on this site, cookies collect data to enhance your experience and personalize the content and advertising you see.
Visit our Privacy Policy to learn more. By continuing to use the site, you agree to this use of cookies and data.

Hourly Weather Krasnyy Lug

Today, 19 September, Saturday

Time Temperature Precipitation Wind Pressure Humidity
00:00 +5°C° 0 mm 3 mps 742 mmHg 87%
01:00 +7°C° 0 mm 3 mps 742 mmHg 84%
02:00 +8°C° 0 mm 3 mps 742 mmHg 81%
03:00 +8°C° 0 mm 3 mps 742 mmHg 82%
04:00 +8°C° 0 mm 3 mps 742 mmHg 84%
05:00 +8°C° 0 mm 3 mps 742 mmHg 85%
06:00 +8°C° 0 mm 3 mps 742 mmHg 84%
07:00 +9°C° 0 mm 3 mps 742 mmHg 83%
08:00 +10°C° 0 mm 4 mps 742 mmHg 80%
09:00 +11°C° 0 mm 4 mps 742 mmHg 76%
10:00 +12°C° 0 mm 4 mps 742 mmHg 72%
11:00 +13°C° 0 mm 4 mps 742 mmHg 67%
12:00 +14°C° 0 mm 4 mps 742 mmHg 65%
13:00 +14°C° 0 mm 4 mps 742 mmHg 62%
14:00 +15°C° 0 mm 4 mps 742 mmHg 59%
15:00 +14°C° 0 mm 4 mps 742 mmHg 64%
16:00 +13°C° 0 mm 3 mps 742 mmHg 68%
17:00 +13°C° 0 mm 2 mps 742 mmHg 72%
18:00 +12°C° 0 mm 2 mps 742 mmHg 76%
19:00 +9°C° 0 mm 2 mps 742 mmHg 79%
20:00 +8°C° 0 mm 2 mps 742 mmHg 83%
21:00 +7°C° 0 mm 2 mps 742 mmHg 85%
22:00 +7°C° 0 mm 2 mps 743 mmHg 87%
23:00 +6°C° 0 mm 2 mps 743 mmHg 88%

Tomorrow, 20 September, Sunday

Time Temperature Precipitation Wind Pressure Humidity
00:00 +6°C° 0 mm 2 mps 743 mmHg 91%
01:00 +5°C° 0 mm 2 mps 744 mmHg 93%
02:00 +5°C° 0 mm 2 mps 744 mmHg 95%
03:00 +5°C° 0 mm 2 mps 744 mmHg 95%
04:00 +4°C° 0 mm 2 mps 744 mmHg 95%
05:00 +4°C° 0 mm 2 mps 745 mmHg 96%
06:00 +5°C° 0 mm 2 mps 745 mmHg 91%
07:00 +6°C° 0 mm 2 mps 745 mmHg 86%
08:00 +8°C° 0 mm 3 mps 746 mmHg 81%
09:00 +9°C° 0 mm 3 mps 746 mmHg 74%
10:00 +10°C° 0 mm 3 mps 746 mmHg 67%
11:00 +12°C° 0 mm 3 mps 746 mmHg 59%
12:00 +12°C° 0 mm 3 mps 746 mmHg 58%
13:00 +13°C° 0 mm 3 mps 746 mmHg 57%
14:00 +13°C° 0 mm 3 mps 746 mmHg 56%
15:00 +14°C° 0 mm 2 mps 746 mmHg 62%
16:00 +13°C° 0 mm 2 mps 746 mmHg 68%
17:00 +12°C° 0 mm 2 mps 746 mmHg 73%
18:00 +10°C° 0 mm 2 mps 746 mmHg 78%
19:00 +8°C° 0 mm 2 mps 746 mmHg 83%
20:00 +7°C° 0 mm 2 mps 746 mmHg 88%
21:00 +6°C° 0 mm 2 mps 746 mmHg 89%
22:00 +6°C° 0 mm 2 mps 746 mmHg 91%
23:00 +6°C° 0 mm 2 mps 746 mmHg 92%

Day after tomorrow, 21 September, Monday

Time Temperature Precipitation Wind Pressure Humidity
00:00 +5°C° 0 mm 2 mps 746 mmHg 93%
01:00 +5°C° 0 mm 2 mps 745 mmHg 94%
02:00 +5°C° 0 mm 2 mps 745 mmHg 95%
03:00 +5°C° 0 mm 2 mps 745 mmHg 95%
04:00 +5°C° 0 mm 2 mps 745 mmHg 95%
05:00 +5°C° 0 mm 2 mps 745 mmHg 95%
06:00 +6°C° 0 mm 2 mps 745 mmHg 91%
07:00 +7°C° 0 mm 3 mps 745 mmHg 86%
08:00 +8°C° 0 mm 3 mps 745 mmHg 82%
09:00 +10°C° 0 mm 3 mps 745 mmHg 76%
10:00 +11°C° 0 mm 3 mps 745 mmHg 69%
11:00 +13°C° 0 mm 3 mps 745 mmHg 63%
12:00 +14°C° 0 mm 3 mps 745 mmHg 61%
13:00 +16°C° 0 mm 3 mps 744 mmHg 60%
14:00 +17°C° 0 mm 4 mps 744 mmHg 58%
15:00 +16°C° 0 mm 3 mps 744 mmHg 64%
16:00 +14°C° 0 mm 3 mps 744 mmHg 69%
17:00 +13°C° 0 mm 3 mps 744 mmHg 75%
18:00 +12°C° 0 mm 3 mps 744 mmHg 79%
19:00 +11°C° 0 mm 3 mps 744 mmHg 84%
20:00 +10°C° 0 mm 3 mps 744 mmHg 89%
21:00 +10°C° 0 mm 3 mps 743 mmHg 91%
22:00 +10°C° 0 mm 3 mps 743 mmHg 92%
23:00 +9°C° 0 mm 3 mps 743 mmHg 94%

22 September, Tuesday

Time Temperature Precipitation Wind Pressure Humidity
00:00 +9°C° 0 mm 3 mps 743 mmHg 95%
01:00 +9°C° 0 mm 3 mps 743 mmHg 95%
02:00 +9°C° 0 mm 3 mps 743 mmHg 96%
03:00 +9°C° 0 mm 3 mps 742 mmHg 96%
04:00 +9°C° 0 mm 3 mps 742 mmHg 95%
05:00 +9°C° 0 mm 3 mps 742 mmHg 95%
06:00 +10°C° 0 mm 3 mps 742 mmHg 90%
07:00 +11°C° 0 mm 4 mps 742 mmHg 85%
08:00 +12°C° 0 mm 4 mps 742 mmHg 80%
09:00 +13°C° 0 mm 4 mps 742 mmHg 74%
10:00 +15°C° 0 mm 4 mps 742 mmHg 69%
11:00 +18°C° 0 mm 4 mps 742 mmHg 63%
12:00 +19°C° 0 mm 4 mps 741 mmHg 62%
13:00 +19°C° 0 mm 4 mps 741 mmHg 61%
14:00 +20°C° 0 mm 4 mps 741 mmHg 60%
15:00 +19°C° 0 mm 4 mps 741 mmHg 66%
16:00 +18°C° 0 mm 3 mps 741 mmHg 72%
17:00 +17°C° 0 mm 3 mps 741 mmHg 78%
18:00 +16°C° 0 mm 2 mps 741 mmHg 83%
19:00 +15°C° 0 mm 2 mps 741 mmHg 88%
20:00 +13°C° 0 mm 2 mps 741 mmHg 93%
21:00 +13°C° 0 mm 2 mps 741 mmHg 94%
22:00 +13°C° 0 mm 2 mps 741 mmHg 95%
23:00 +12°C° 0 mm 2 mps 741 mmHg 96%

23 September, Wednesday

Time Temperature Precipitation Wind Pressure Humidity
00:00 +12°C° 0 mm 2 mps 741 mmHg 96%
01:00 +12°C° 0 mm 2 mps 741 mmHg 96%
02:00 +12°C° 0 mm 2 mps 741 mmHg 96%
03:00 +12°C° 0 mm 2 mps 741 mmHg 96%
04:00 +10°C° 0 mm 2 mps 741 mmHg 96%
05:00 +10°C° 0 mm 2 mps 741 mmHg 96%
06:00 +12°C° 0 mm 2 mps 741 mmHg 91%
07:00 +13°C° 0 mm 3 mps 741 mmHg 85%
08:00 +14°C° 0 mm 3 mps 741 mmHg 80%
09:00 +16°C° 0 mm 3 mps 741 mmHg 74%
10:00 +18°C° 0 mm 4 mps 741 mmHg 67%
11:00 +20°C° 0 mm 4 mps 740 mmHg 61%
12:00 +20°C° 0 mm 4 mps 740 mmHg 57%
13:00 +21°C° 0 mm 4 mps 740 mmHg 54%
14:00 +21°C° 0 mm 4 mps 740 mmHg 51%
15:00 +20°C° 0 mm 4 mps 740 mmHg 56%
16:00 +19°C° 0 mm 3 mps 739 mmHg 62%
17:00 +17°C° 0 mm 3 mps 739 mmHg 67%
18:00 +16°C° 0 mm 3 mps 739 mmHg 70%
19:00 +14°C° 0 mm 3 mps 739 mmHg 73%
20:00 +12°C° 0 mm 3 mps 739 mmHg 76%
21:00 +12°C° 0 mm 3 mps 739 mmHg 76%
22:00 +12°C° 0 mm 3 mps 740 mmHg 76%
23:00 +12°C° 0 mm 2 mps 740 mmHg 76%

24 September, Thursday

Time Temperature Precipitation Wind Pressure Humidity
00:00 +12°C° 0 mm 2 mps 740 mmHg 75%
01:00 +10°C° 0 mm 2 mps 740 mmHg 74%
02:00 +10°C° 0 mm 2 mps 739 mmHg 73%
03:00 +10°C° 0 mm 2 mps 739 mmHg 71%
04:00 +10°C° 0 mm 2 mps 739 mmHg 70%
05:00 +9°C° 0 mm 2 mps 739 mmHg 68%
06:00 +10°C° 0 mm 3 mps 739 mmHg 65%
07:00 +11°C° 0 mm 3 mps 740 mmHg 62%
08:00 +12°C° 0 mm 3 mps 740 mmHg 59%
09:00 +14°C° 0 mm 3 mps 740 mmHg 56%
10:00 +16°C° 0 mm 3 mps 740 mmHg 53%
11:00 +18°C° 0 mm 3 mps 740 mmHg 51%
12:00 +18°C° 0 mm 3 mps 740 mmHg 51%
13:00 +19°C° 0 mm 3 mps 740 mmHg 52%
14:00 +20°C° 0 mm 3 mps 740 mmHg 52%
15:00 +19°C° 0 mm 3 mps 740 mmHg 59%
16:00 +17°C° 0 mm 3 mps 740 mmHg 65%
17:00 +16°C° 0 mm 2 mps 740 mmHg 72%
18:00 +15°C° 0 mm 2 mps 740 mmHg 74%
19:00 +13°C° 0 mm 3 mps 740 mmHg 75%
20:00 +13°C° 0 mm 3 mps 740 mmHg 77%
21:00 +12°C° 0 mm 3 mps 740 mmHg 78%
22:00 +13°C° 0 mm 2 mps 740 mmHg 78%
23:00 +12°C° 0 mm 2 mps 741 mmHg 79%
Show more